Regional Weather Roundup
Issued by NWS Midland/Odessa, TX

Skip options and go directly to product.
Home | Oldest Version | Next Version | Current Version | All | Text Only | Save Text | Print | Product List | Glossary On

Skip product version selection by date and time.   
415
ASUS44 KMAF 300710
RWRMAF
MIDLAND AREA WEATHER ROUNDUP
NATIONAL WEATHER SERVICE MIDLAND TX
200 AM CDT THU JUL 30 2015

...IN SOUTHWEST TEXAS AND SOUTHEAST NEW MEXICO...

CITY           SKY/WX    TMP DP  RH WIND       PRES   REMARKS
ALPINE         CLOUDY    75  54  48 S3        30.27S
ANDREWS        MOCLDY    81  60  47 SE8       30.15S
ARTESIA        MOCLDY    82  59  44 SE9       30.16S
BIG SPRING     MOCLDY    82  55  39 SE10      30.14S
CARLSBAD       CLEAR     77  63  61 E6        30.13R
DRYDEN           N/A     85  58  39 SE7       30.07S
FORT STOCKTON  CLEAR     79  55  43 SE10      30.12R
GUAD PASS      CLEAR     74  53  48 E10       30.29S
HOBBS          PTCLDY    75  63  64 E8        30.19R
MARFA          PTCLDY    70  55  60 E6        30.26S
MIDLAND AIRPK  MOCLDY    81  68  64 CALM      30.14R
MIDLAND INTL   MOCLDY    84  65  52 SE5       30.13S
ODESSA         MOCLDY    87  53  31 S8        30.14S
PECOS          PTCLDY    82  49  32 SE8       30.09R
PRESIDIO       FAIR      78  64  62 CALM      30.08R
SEMINOLE       HAZE      75  60  59 E6        30.18S VSB 1/2
SNYDER         MOCLDY    81  64  56 E6        30.12S
WINK           PTCLDY    83  53  35 E7        30.11R
$$
...OTHER STATIONS IN TEXAS...

CITY           SKY/WX    TMP DP  RH WIND       PRES   REMARKS
ABILENE        CLEAR     80  63  55 SE9       30.09S
AMARILLO       PTCLDY    71  68  90 NE7       30.23F
AUSTIN         CLEAR     78  72  81 S7        30.05S
BROWNSVILLE    CLEAR     78  75  90 SE5       30.02F
CORPUS CHRISTI MOCLDY    76  73  91 S5        30.03F
DALLAS FTW     CLEAR     85  64  49 CALM      30.04S
DEL RIO        CLEAR     85  68  56 E9        30.02S
EL PASO        CLOUDY    74  64  71 N14       30.17F THUNDER
HOUSTON INT    CLEAR     83  75  77 SW6       30.02F
LUBBOCK        PTCLDY    75  63  66 SE5       30.17F
SAN ANGELO     CLEAR     81  59  47 S3        30.08S
SAN ANTONIO    PTCLDY    81  70  69 S7        30.08R
WACO           CLEAR     79  68  69 S7        30.04R
WICHITA FALLS  NOT AVBL
$$
...OTHER LOCATIONS IN NEW MEXICO...

CITY           SKY/WX    TMP DP  RH WIND       PRES   REMARKS
ALAMAGORDO     MOCLDY    73  57  56 NW12      30.22R
ALBUQUERQUE    CLOUDY    67  59  75 E28       30.35F
CANNON AFB     CLOUDY    75  65  71 E12       30.25F
CLOVIS         MOCLDY    72  63  73 E10       30.26F
HOLLOMAN AFB   NOT AVBL
ROSWELL        CLOUDY    79  62  56 N17       30.19R
RUIDOSO          N/A    N/A N/A N/A MISG        N/A
SANTA FE       LGT RAIN  60  57  89 E6        30.45F
TRUTH OR CONSE HVY RAIN  66  62  87 W8        30.35R FOG
TUCUMCARI      TSTM      68  64  87 W17       30.28S
$$

USA.gov is the U.S. government's official web portal to all federal, state and local government web resources and services.